390P/Gibbs (2020)

Japanese version
Home page
Updated on November 5, 2020

---------------------------------------------------------------------

* Profile

Designation 390P/2019 U1
Recovery Date October 21, 2019
Magnitude 18.4 mag
Recoverer A. Fitzsimmons (Asteroid Terrestrial-Impact Last Alert System (ATLAS) search program)

* Pictures

* Orbital Elements

Epoch 2020 Mar. 12.0 TT = JDT 2458920.5
T 2020 Mar. 22.22633 TT                                 Rudenko
q   1.6998006            (2000.0)            P               Q
n   0.07060996     Peri.  232.33598     +0.88996525     -0.43132716
a   5.7972950      Node   152.28074     +0.44896096     +0.88564861
e   0.7067942      Incl.   18.55960     -0.07997442     +0.17199834
P  14.0
From 208 observations 2006 Nov. 16-2020 Oct. 17, mean residual 0".7.

* Finding Charts

* Magnitudes Graph

        m1 = 10.0 + 5 log d + 15.0 log r

---------------------------------------------------------------------

The orbital elements are published on M.P.E.C. 2020-U96.
The charts are made with StellaNavigator Ver.10 (AstroArts).
The magnitudes graphs are made with Comet for Windows.

---------------------------------------------------------------------

Copyright(C) Seiichi Yoshida (comet@aerith.net). All rights reserved.